www.pogodaiklimat.ru

Погода и климат >> Архив погоды >> Украина >> Одесса


АРХИВ ПОГОДЫ в Одессе

Время (UTC), дата Ветер
(напр.,м/с)
 
Видим.   Явления Облачность Т
(С)
Тd
(С)
f
(%)
Тe
(С)
Тes
(С)
Комфортность P
(гПа)
Po
(гПа)
Тmin
(С)
Tmax
(С)
R
(мм)
S
(см)
18 20.03 ЮЗ 2 50 км 9/0
[Ac trans]
+7.4 -1.0 55 +6 +6 тепло 1012.0 1006.8 +9.5
21 20.03 ЮЗ 1 30 км 10/0
[Ac und]
+7.3 -0.8 56 +7 +7 тепло 1012.6 1007.4
00 21.03 ЮЗ 1 30 км 10/0
[Ac und]
+5.2 +1.9 79 +4 +4 тепло 1013.0 1007.8
03 21.03 штиль 0 12 км 10/0
[Ac und]
+3.7 +2.4 91 +3 +3 по сезону 1013.8 1008.6
06 21.03 СВ 1 14 км 3/0
[Ac trans]
+5.9 +2.2 77 +5 +8 тепло 1015.1 1009.9 +3.5
09 21.03 ЮВ 2 15 км 6/1 600 м
[Cu hum Ci fib]
+7.5 +2.4 70 +6 +14 тепло 1016.6 1011.4
12 21.03 Ю 4 35 км 10/0
[Ci]
+8.0 +1.3 63 +5 +9 по сезону 1016.3 1011.1
15 21.03 Ю 2 35 км 10/0
[Ci fib]
+7.4 +3.4 76 +5 +6 по сезону 1016.1 1010.9
18 21.03 Ю 2 30 км ясно +7.2 +2.1 70 +5 +5 по сезону 1017.8 1012.6 +8.7
21 21.03 ЮЗ 1 30 км ясно +6.6 +0.7 66 +6 +6 тепло 1019.0 1013.8
00 22.03 штиль 0 12 км ясно +4.1 +1.8 85 +3 +3 по сезону 1019.6 1014.3
03 22.03 СВ 1 900 м туман ясно +2.9 +2.9 100 +1 +1 по сезону 1020.2 1014.9
06 22.03 Ю 2 26 км {туман} 6/0
[Ci fib]
+6.8 +3.5 79 +5 +7 тепло 1021.4 1016.2 +2.4
09 22.03 Ю 4 30 км 8/0
[Ci fib]
+8.5 +1.3 61 +6 +12 тепло 1022.4 1017.2
12 22.03 Ю 4 35 км 8/0
[Ci fib]
+8.9 +1.9 61 +6 +11 по сезону 1021.6 1016.4
15 22.03 Ю 3 45 км 8/0
[Ci fib]
+7.9 +3.2 72 +5 +6 по сезону 1021.3 1016.1
18 22.03 ЮЗ 1 22 км 8/0
[Ci fib]
+6.8 +4.0 82 +6 +6 тепло 1022.0 1016.8 +9.4
21 22.03 ЮЗ 2 40 км 6/0
[Ci fib]
+6.9 +2.5 74 +5 +5 тепло 1022.4 1017.2
00 23.03 ЮЗ 1 25 км 4/0
[Ci fib]
+5.8 +3.1 83 +5 +5 тепло 1022.5 1017.3
03 23.03 штиль 0 5000 м дымка 4/0
[Ci fib]
+3.8 +3.1 95 +3 +3 по сезону 1023.0 1017.7
06 23.03 Ю 1 800 м туман 8/0
[Ci fib]
+6.2 +5.7 97 +5 +8 тепло 1024.3 1019.1 +3.7
09 23.03 Ю 4 25 км 3/0
[Ac und]
+8.0 +5.5 84 +5 +10 по сезону 1025.0 1019.8
12 23.03 Ю 5 27 км ясно +8.5 +5.8 83 +5 +9 по сезону 1024.8 1019.6
15 23.03 Ю 2 19 км 4/0
[Ac und Ci fib]
+9.1 +3.8 69 +8 +8 тепло 1024.8 1019.6
18 23.03 ЮЗ 3 35 км ясно +8.2 +0.3 57 +6 +6 тепло 1025.5 1020.3 +10.0
21 23.03 ЮЗ 3 24 км ясно +7.8 +1.3 63 +5 +5 тепло 1025.7 1020.5
00 24.03 ЮЗ 1 40 км ясно +6.7 +2.3 73 +6 +6 тепло 1025.3 1020.1
03 24.03 ЮЗ 2 40 км ясно +6.6 +2.7 76 +4 +4 по сезону 1024.6 1019.4
06 24.03 ЮЗ 2 25 км 8/0
[Ci fib]
+9.5 +1.8 59 +8 +11 тепло 1025.0 1019.8 +5.7
09 24.03 Ю 3 27 км 3/0
[Ci fib]
+8.6 +5.0 78 +6 +15 опасность
простуды
1024.5 1019.3
12 24.03 Ю 5 27 км 10/0
[Ac trans Ci fib]
+11.7 +3.2 56 +9 +12 тепло 1022.4 1017.3
15 24.03 ЮЗ 3 30 км 8/0
[Ac trans Ci sp]
+11.0 +4.3 63 +9 +10 тепло 1020.5 1015.4
18 24.03 ЮЗ 3 26 км 4/0
[Ac trans]
+10.1 +4.2 67 +8 +8 тепло 1020.6 1015.4 +12.4
21 24.03 СЗ 1 21 км {ливн. осадки} 8/0
[Ac und]
+9.7 +4.8 71 +9 +9 тепло 1021.5 1016.3
00 25.03 С 4 12 км в посл. час ливневой дождь 10/6 630 м
[Cb calv Ac und]
+9.8 +7.3 84 +7 +7 тепло 1022.3 1017.1
03 25.03 С 4 35 км 8/4 1140 м
[Sc Ac trans]
+6.8 +3.7 81 +3 +3 по сезону 1022.9 1017.7
06 25.03 С 4 35 км 6/0
[Ci fib]
+6.6 +3.2 79 +3 +5 по сезону 1023.5 1018.3 +5.9 2
09 25.03 В 1 28 км 3/3 600 м
[Cu hum]
+9.2 +4.4 72 +9 +18 тепло 1023.3 1018.1
12 25.03 Ю 3 40 км 8/4 600 м
[Sc diur, vesp Ac cuf]
+9.9 +1.7 57 +8 +10 тепло 1021.2 1016.0
15 25.03 ЮЗ 3 30 км 8/4 600 м
[Sc diur, vesp Ac cuf]
+10.1 +1.7 56 +8 +9 тепло 1018.7 1013.6
18 25.03 З 1 12 км 6/0
[Ac und]
+7.8 +1.4 64 +7 +7 тепло 1018.0 1012.8 +11.1
21 25.03 С 1 40 км 6/0
[Ac trans]
+7.2 -4.7 42 +7 +7 тепло 1016.8 1011.6
00 26.03 ЮВ 1 45 км 10/0
[Ac und]
+6.5 -4.6 45 +6 +6 тепло 1014.9 1009.7
03 26.03 штиль 0 45 км 6/0
[Ac trans]
+6.5 -2.3 53 +6 +6 тепло 1013.3 1008.1
06 26.03 В 3 35 км слабый ливневой дождь 10/8 600 м
[Cb calv Ac trans]
+5.9 +1.9 75 +3 +3 по сезону 1013.6 1008.4 +5.7 0.4
09 26.03 ЮВ 4 19 км слабый ливневой дождь 10/8 600 м
[Cb calv Ac trans]
+5.3 +1.5 76 +1 +2 по сезону 1014.4 1009.2
12 26.03 штиль 0 45 км в посл. час ливневой дождь 10/8 960 м
[Cb calv Ac trans]
+5.3 +1.8 78 +4 +5 по сезону 1014.9 1009.7
15 26.03 СЗ 2 35 км в посл. час ливневой дождь 10/6 540 м
[Cb calv Ac trans]
+5.6 +2.7 82 +3 +3 по сезону 1016.1 1010.9
18 26.03 СЗ 3 27 км {ливн. осадки} 10/4 600 м
[Sc Ac trans]
+5.6 +2.7 82 +2 +2 по сезону 1017.9 1012.7 +6.2 0.9
21 26.03 СЗ 2 20 км 6/0
[Ac trans Ci fib]
+4.3 +1.5 82 +2 +2 по сезону 1019.5 1014.2
00 27.03 СЗ 2 15 км 6/0
[Ac trans Ci fib]
+3.3 +0.6 82 0 0 по сезону 1020.2 1014.9
03 27.03 СЗ 3 17 км 3/3 600 м
[Sc diur, vesp]
+2.7 -0.3 81 -1 -1 прохладно 1020.5 1015.2
06 27.03 СЗ 2 21 км 3/3 600 м
[Sc]
+4.3 0.0 74 +2 +4 по сезону 1020.6 1015.3 +1.9
09 27.03 З 6 50 км 10/6 800 м
[Sc Ac trans Ci]
+7.1 +0.2 61 +3 +4 по сезону 1019.4 1014.2
12 27.03 З 6 30 км 9/6 1500 м
[Sc Ac trans]
+9.3 +0.9 56 +6 +7 по сезону 1016.0 1010.9

 

Местоположение метеостанции Одесса (Одесская область, Украина): широта 46.43 долгота 30.77 высота над уровнем моря 42 м.

В архиве по умолчанию представлена погода в Одессе за последнюю неделю. Архивные данные за месяц целиком и за предыдущие месяцы, начиная с января 2011 года, Вы можете получить, выбрав интересующий диапазон дат из раскрывающегося списка и нажав кнопку "Ввод!".

Внимание! Время в таблицах - всемирное. Для получения местного времени необходимо прибавить поправку, которая в Одессе равна 2 ч.

Смотрите также архив погоды в соседних городах и на ближайших метеорологических станциях:

Погода в Ильичёвске (Одесская область, Украина) (6 км)
Погода в Белгород-Днестровском (Одесская область, Украина) (41 км)
Погода в Очакове (Николаевская область, Украина) (64 км)
Погода в Сербке (Одесская область, Украина) (66 км)
Погода в Раздельной (Одесская область, Украина) (70 км)
Погода в Заставе (Одесская область, Украина) (72 км)
Погода в Сарате (Одесская область, Украина) (96 км)
Погода в Штефан Водэ (Молдова) (99 км)
Погода в Тирасполе (Молдова) (103 км)
Погода в Николаеве (Николаевская область, Украина) (112 км)

Пояснения к столбцам:

Ветер - указаны скорость ветра в м/с - средняя за 10 мин, порывы в срок и между сроками (в фигурных скобках) и направление, откуда дует ветер: С - северный, СВ - северо-восточный, В - восточный, ЮВ - юго-восточный, Ю - южный, ЮЗ - юго-западный, З - западный, СЗ - северо-западный.
Видимость - горизонтальная дальность видимости в метрах или километрах. При видимости от 1 до 10 км при отсутствии осадков обычно наблюдается дымка, при ухудшении видимости до 1 км и менее - туман. В сухую погоду видимость может ухудшаться дымом, пылью или мглою.
Явления - указаны атмосферные явления, наблюдавшиеся в срок или в последний час перед сроком; фигурными скобками обозначены явления, наблюдавшиеся между сроками (за 1-3 часа до срока); квадратными скобками обозначены град или гололедные отложения с указанием их диаметра в мм.
Облачность - указаны через наклонную черту общая и нижняя облачность в баллах и высота нижней границы облаков в метрах; квадратными скобками обозначены формы облаков: Ci - перистые, Cs - перисто-слоистые, Cc - перисто-кучевые, Ac - высококучевые, As - высокослоистые, Sc - слоисто-кучевые, Ns - слоисто-дождевые, Cu - кучевые, Cb - кучево-дождевые. Подробнее классификацию облаков см. в Атласе облаков (PDF).
T - Температура воздуха - температура, измеренная на высоте 2 м над землей.
Td - Температура точки росы - температура, при понижении до которой содержащийся в воздухе водяной пар достигнет насыщения.
f - Относительная влажность воздуха - влажноcть воздуха, измеренная на высоте 2 м над землей.
Te - Эффективная температура - температура, которую ощущает одетый по сезону человек в тени. Характеристика душности погоды. При расчете учитывается влияние влажности воздуха и скорости ветра на теплоощущения человека.
Tes - Эффективная температура на солнце - температура, которую ощущает человек, с поправкой на солнечный нагрев. Характеристика знойности погоды. Зависит от высоты солнца над горизонтом, облачности и скорости ветра. Ночью, в пасмурную погоду, а также при ветре 12 м/с и более поправка равна нулю.
P - Атмосферное давление - приведенное к уровню моря атмосферное давление.
Po - Атмосферное давление - измеренное на уровне метеостанции атмосферное давление.
Tmin - Минимальная температура - минимум температуры воздуха на высоте 2 м над землей.
Tmax - Максимальная температура - максимум температуры воздуха на высоте 2 м над землей.
R - Количество осадков - Количество выпавших осадков, мм. При наведении курсора мыши на число - период времени, за который выпало указанное количество осадков.
S - Снежный покров - Высота снежного покрова, см. При наведении курсора мыши на число - состояние снежного покрова и степень покрытия местности в баллах.